Time,TemperatureF,DewpointF,PressureIn,WindDirection,WindDirectionDegrees,WindSpeedMPH,WindSpeedGustMPH,Humidity,HourlyPrecipIn,Conditions,Clouds,dailyrainin,SoftwareType,DateUTC
2013-05-28 00:01:00,65.7,57.2,30.11,SSE,150,0.0,0.0,74,0.00,,---,0.00,VWS V14.01,2013-05-28 04:01:00,
2013-05-28 00:03:00,65.7,57.2,30.11,SE,124,0.0,2.0,74,0.00,,---,0.00,VWS V14.01,2013-05-28 04:03:00,
2013-05-28 00:08:00,65.6,57.1,30.11,SE,124,1.0,2.0,74,0.00,,---,0.00,VWS V14.01,2013-05-28 04:08:00,
2013-05-28 00:13:00,65.6,57.1,30.11,SE,130,0.0,2.0,74,0.00,,---,0.00,VWS V14.01,2013-05-28 04:13:00,
2013-05-28 00:18:00,65.7,57.2,30.11,South,184,1.0,4.0,74,0.00,,---,0.00,VWS V14.01,2013-05-28 04:18:00,
2013-05-28 00:23:00,65.5,57.4,30.11,South,184,0.0,1.0,75,0.00,,---,0.00,VWS V14.01,2013-05-28 04:23:00,
2013-05-28 00:28:00,65.3,57.2,30.11,South,184,2.0,3.0,75,0.00,,---,0.00,VWS V14.01,2013-05-28 04:28:00,
2013-05-28 00:33:00,65.1,56.6,30.11,South,184,0.0,1.0,74,0.00,,---,0.00,VWS V14.01,2013-05-28 04:33:00,
2013-05-28 00:38:00,65.1,56.6,30.11,South,184,0.0,1.0,74,0.00,,---,0.00,VWS V14.01,2013-05-28 04:38:00,
2013-05-28 00:44:00,65.1,56.6,30.11,South,184,0.0,1.0,74,0.00,,---,0.00,VWS V14.01,2013-05-28 04:44:00,
2013-05-28 00:49:00,65.2,56.7,30.11,South,184,1.0,2.0,74,0.00,,---,0.00,VWS V14.01,2013-05-28 04:49:00,
2013-05-28 00:54:00,65.3,57.2,30.11,NNW,348,0.0,4.0,75,0.00,,---,0.00,VWS V14.01,2013-05-28 04:54:00,
2013-05-28 00:59:00,65.6,57.8,30.11,South,183,1.0,5.0,76,0.00,,---,0.00,VWS V14.01,2013-05-28 04:59:00,
2013-05-28 01:04:00,65.6,58.2,30.11,SW,222,3.0,4.0,77,0.00,,---,0.00,VWS V14.01,2013-05-28 05:04:00,
2013-05-28 01:09:00,65.6,58.2,30.11,South,175,0.0,9.0,77,0.00,,---,0.00,VWS V14.01,2013-05-28 05:09:00,
2013-05-28 01:14:00,65.6,58.6,30.11,South,179,0.0,5.0,78,0.00,,---,0.00,VWS V14.01,2013-05-28 05:14:00,
2013-05-28 01:19:00,65.3,58.6,30.11,SSW,200,2.0,5.0,79,0.00,,---,0.00,VWS V14.01,2013-05-28 05:19:00,
2013-05-28 01:24:00,65.2,58.9,30.11,SW,222,2.0,4.0,80,0.00,,---,0.00,VWS V14.01,2013-05-28 05:24:00,
2013-05-28 01:29:00,65.1,58.8,30.11,SSW,193,0.0,5.0,80,0.00,,---,0.00,VWS V14.01,2013-05-28 05:29:00,
2013-05-28 01:34:00,65.0,59.0,30.11,SSE,159,0.0,4.0,81,0.00,,---,0.00,VWS V14.01,2013-05-28 05:34:00,
2013-05-28 01:40:00,65.0,59.4,30.11,SSE,159,0.0,4.0,82,0.00,,---,0.00,VWS V14.01,2013-05-28 05:40:00,
2013-05-28 01:45:00,64.7,59.4,30.10,South,190,0.0,4.0,83,0.00,,---,0.00,VWS V14.01,2013-05-28 05:45:00,
2013-05-28 01:50:00,64.7,59.4,30.10,South,184,0.0,4.0,83,0.00,,---,0.00,VWS V14.01,2013-05-28 05:50:00,
2013-05-28 01:55:00,64.7,59.8,30.10,South,188,1.0,5.0,84,0.00,,---,0.00,VWS V14.01,2013-05-28 05:55:00,
2013-05-28 02:00:00,64.7,60.1,30.10,South,175,3.0,7.0,85,0.00,,---,0.00,VWS V14.01,2013-05-28 06:00:00,
2013-05-28 02:05:00,64.9,60.3,30.10,SW,217,2.0,6.0,85,0.00,,---,0.00,VWS V14.01,2013-05-28 06:05:00,
2013-05-28 02:10:00,64.9,60.6,30.10,SSW,209,2.0,2.0,86,0.00,,---,0.00,VWS V14.01,2013-05-28 06:10:00,
2013-05-28 02:15:00,64.9,60.6,30.09,SW,217,4.0,6.0,86,0.00,,---,0.00,VWS V14.01,2013-05-28 06:15:00,
2013-05-28 02:20:00,64.9,60.9,30.09,South,182,4.0,4.0,87,0.00,,---,0.00,VWS V14.01,2013-05-28 06:20:00,
2013-05-28 02:25:00,64.8,60.8,30.09,SSW,192,1.0,6.0,87,0.00,,---,0.00,VWS V14.01,2013-05-28 06:25:00,
2013-05-28 02:31:00,64.7,60.8,30.09,South,191,2.0,3.0,87,0.00,,---,0.00,VWS V14.01,2013-05-28 06:31:00,
2013-05-28 02:36:00,64.7,61.1,30.09,SSW,192,0.0,5.0,88,0.00,,---,0.00,VWS V14.01,2013-05-28 06:36:00,
2013-05-28 02:41:00,64.6,61.0,30.09,SSE,155,4.0,5.0,88,0.00,,---,0.00,VWS V14.01,2013-05-28 06:41:00,
2013-05-28 02:46:00,64.5,61.2,30.09,SSW,200,0.0,5.0,89,0.00,,---,0.00,VWS V14.01,2013-05-28 06:46:00,
2013-05-28 02:51:00,64.4,61.1,30.09,SSW,212,0.0,2.0,89,0.00,,---,0.00,VWS V14.01,2013-05-28 06:51:00,
2013-05-28 02:56:00,64.4,61.1,30.09,SSE,158,1.0,3.0,89,0.00,,---,0.00,VWS V14.01,2013-05-28 06:56:00,
2013-05-28 03:01:00,64.3,61.0,30.09,SW,224,3.0,5.0,89,0.00,,---,0.00,VWS V14.01,2013-05-28 07:01:00,
2013-05-28 03:06:00,64.3,61.3,30.09,SW,220,1.0,5.0,90,0.00,,---,0.00,VWS V14.01,2013-05-28 07:06:00,
2013-05-28 03:11:00,64.1,61.1,30.09,SW,220,0.0,1.0,90,0.00,,---,0.00,VWS V14.01,2013-05-28 07:11:00,
2013-05-28 03:16:00,63.9,60.9,30.09,SW,220,0.0,4.0,90,0.00,,---,0.00,VWS V14.01,2013-05-28 07:16:00,
2013-05-28 03:22:00,63.7,61.0,30.09,SW,220,2.0,3.0,91,0.00,,---,0.00,VWS V14.01,2013-05-28 07:22:00,
2013-05-28 03:27:00,63.6,60.9,30.09,SW,219,2.0,4.0,91,0.00,,---,0.00,VWS V14.01,2013-05-28 07:27:00,
2013-05-28 03:32:00,63.6,61.2,30.09,SW,218,2.0,3.0,92,0.00,,---,0.00,VWS V14.01,2013-05-28 07:32:00,
2013-05-28 03:37:00,63.5,61.1,30.09,SW,218,1.0,3.0,92,0.00,,---,0.00,VWS V14.01,2013-05-28 07:37:00,
2013-05-28 03:42:00,63.4,61.0,30.09,SW,218,0.0,3.0,92,0.00,,---,0.00,VWS V14.01,2013-05-28 07:42:00,
2013-05-28 03:47:00,63.3,60.9,30.09,SW,218,0.0,3.0,92,0.00,,---,0.00,VWS V14.01,2013-05-28 07:47:00,
2013-05-28 03:52:00,63.2,61.2,30.09,SW,218,0.0,0.0,93,0.00,,---,0.00,VWS V14.01,2013-05-28 07:52:00,
2013-05-28 03:57:00,63.1,61.0,30.09,SW,218,1.0,3.0,93,0.00,,---,0.00,VWS V14.01,2013-05-28 07:57:00,
2013-05-28 04:02:00,63.1,61.0,30.09,SW,218,0.0,1.0,93,0.00,,---,0.00,VWS V14.01,2013-05-28 08:02:00,
2013-05-28 04:07:00,63.0,61.0,30.09,SW,218,0.0,1.0,93,0.00,,---,0.00,VWS V14.01,2013-05-28 08:07:00,
2013-05-28 04:12:00,62.9,61.2,30.09,SW,218,0.0,0.0,94,0.00,,---,0.00,VWS V14.01,2013-05-28 08:12:00,
2013-05-28 04:18:00,62.7,61.0,30.09,SW,218,0.0,0.0,94,0.00,,---,0.00,VWS V14.01,2013-05-28 08:18:00,
2013-05-28 04:23:00,62.4,60.7,30.09,SW,218,0.0,0.0,94,0.00,,---,0.00,VWS V14.01,2013-05-28 08:23:00,
2013-05-28 04:28:00,62.4,61.0,30.09,SW,218,0.0,2.0,95,0.00,,---,0.00,VWS V14.01,2013-05-28 08:28:00,
2013-05-28 04:33:00,62.4,61.0,30.09,SW,218,0.0,1.0,95,0.00,,---,0.00,VWS V14.01,2013-05-28 08:33:00,
2013-05-28 04:38:00,62.4,61.0,30.09,SW,218,0.0,1.0,95,0.00,,---,0.00,VWS V14.01,2013-05-28 08:38:00,
2013-05-28 04:43:00,62.4,61.0,30.09,SW,218,3.0,3.0,95,0.00,,---,0.00,VWS V14.01,2013-05-28 08:43:00,
2013-05-28 04:48:00,62.3,60.8,30.09,SW,218,0.0,3.0,95,0.00,,---,0.00,VWS V14.01,2013-05-28 08:48:00,
2013-05-28 04:53:00,62.3,60.8,30.09,SW,218,2.0,3.0,95,0.00,,---,0.00,VWS V14.01,2013-05-28 08:53:00,
2013-05-28 04:58:00,62.3,60.8,30.09,SSW,198,0.0,4.0,95,0.00,,---,0.00,VWS V14.01,2013-05-28 08:58:00,
2013-05-28 05:04:00,62.3,60.8,30.09,SSW,199,0.0,4.0,95,0.00,,---,0.00,VWS V14.01,2013-05-28 09:04:00,
2013-05-28 05:09:00,62.2,60.8,30.09,SSW,199,1.0,4.0,95,0.00,,---,0.00,VWS V14.01,2013-05-28 09:09:00,
2013-05-28 05:14:00,62.2,60.8,30.09,SSW,199,1.0,3.0,95,0.00,,---,0.00,VWS V14.01,2013-05-28 09:14:00,
2013-05-28 05:19:00,62.2,60.8,30.09,SSW,199,1.0,3.0,95,0.00,,---,0.00,VWS V14.01,2013-05-28 09:19:00,
2013-05-28 05:24:00,62.0,60.6,30.09,SSW,199,0.0,2.0,95,0.00,,---,0.00,VWS V14.01,2013-05-28 09:24:00,
2013-05-28 05:29:00,62.0,60.6,30.09,SSW,199,0.0,3.0,95,0.00,,---,0.00,VWS V14.01,2013-05-28 09:29:00,
2013-05-28 05:34:00,62.0,60.6,30.09,SSW,199,0.0,1.0,95,0.00,,---,0.00,VWS V14.01,2013-05-28 09:34:00,
2013-05-28 05:39:00,61.9,60.8,30.09,SSW,199,0.0,2.0,96,0.00,,---,0.00,VWS V14.01,2013-05-28 09:39:00,
2013-05-28 05:44:00,61.9,60.8,30.10,SSW,200,0.0,3.0,96,0.00,,---,0.00,VWS V14.01,2013-05-28 09:44:00,
2013-05-28 05:49:00,61.8,60.7,30.10,SSW,200,0.0,3.0,96,0.00,,---,0.00,VWS V14.01,2013-05-28 09:49:00,
2013-05-28 05:55:00,61.7,60.5,30.10,SSW,200,0.0,0.0,96,0.00,,---,0.00,VWS V14.01,2013-05-28 09:55:00,
2013-05-28 06:00:00,61.5,60.3,30.11,SSW,200,0.0,0.0,96,0.00,,---,0.00,VWS V14.01,2013-05-28 10:00:00,
2013-05-28 06:05:00,61.2,60.0,30.11,SSW,200,0.0,0.0,96,0.00,,---,0.00,VWS V14.01,2013-05-28 10:05:00,
2013-05-28 06:10:00,61.1,60.0,30.11,SSW,200,0.0,0.0,96,0.00,,---,0.00,VWS V14.01,2013-05-28 10:10:00,
2013-05-28 06:15:00,61.0,59.9,30.12,SSW,200,0.0,0.0,96,0.00,,---,0.00,VWS V14.01,2013-05-28 10:15:00,
2013-05-28 06:20:00,60.8,59.7,30.12,SSW,200,0.0,0.0,96,0.00,,---,0.00,VWS V14.01,2013-05-28 10:20:00,
2013-05-28 06:25:00,60.8,59.7,30.12,SSW,200,0.0,0.0,96,0.00,,---,0.00,VWS V14.01,2013-05-28 10:25:00,
2013-05-28 06:30:00,60.9,59.8,30.13,SSW,200,0.0,0.0,96,0.00,,---,0.00,VWS V14.01,2013-05-28 10:30:00,
2013-05-28 06:35:00,60.8,59.7,30.13,NNE,27,0.0,0.0,96,0.00,,---,0.00,VWS V14.01,2013-05-28 10:35:00,
2013-05-28 06:40:00,61.0,59.9,30.13,NNE,27,0.0,0.0,96,0.00,,---,0.00,VWS V14.01,2013-05-28 10:40:00,
2013-05-28 06:45:00,61.0,59.9,30.14,NNE,27,0.0,0.0,96,0.00,,---,0.00,VWS V14.01,2013-05-28 10:45:00,
2013-05-28 06:50:00,61.3,60.4,30.14,NNE,27,0.0,0.0,97,0.00,,---,0.00,VWS V14.01,2013-05-28 10:50:00,
2013-05-28 06:56:00,61.7,60.8,30.14,NNE,27,0.0,0.0,97,0.00,,---,0.00,VWS V14.01,2013-05-28 10:56:00,
2013-05-28 07:01:00,61.8,60.9,30.14,NNE,27,0.0,0.0,97,0.00,,---,0.00,VWS V14.01,2013-05-28 11:01:00,
2013-05-28 07:06:00,61.8,60.9,30.14,NNE,27,0.0,1.0,97,0.00,,---,0.00,VWS V14.01,2013-05-28 11:06:00,
2013-05-28 07:11:00,61.9,61.0,30.14,NNE,27,0.0,0.0,97,0.00,,---,0.00,VWS V14.01,2013-05-28 11:11:00,
2013-05-28 07:16:00,62.1,61.2,30.14,NE,55,0.0,0.0,97,0.00,,---,0.00,VWS V14.01,2013-05-28 11:16:00,
2013-05-28 07:21:00,62.3,61.4,30.14,NE,55,0.0,0.0,97,0.00,,---,0.00,VWS V14.01,2013-05-28 11:21:00,
2013-05-28 07:26:00,62.5,61.6,30.14,NE,55,0.0,0.0,97,0.00,,---,0.00,VWS V14.01,2013-05-28 11:26:00,
2013-05-28 07:31:00,62.6,61.7,30.15,NE,55,0.0,0.0,97,0.00,,---,0.00,VWS V14.01,2013-05-28 11:31:00,
2013-05-28 07:36:00,62.8,61.7,30.15,NE,55,0.0,0.0,96,0.00,,---,0.00,VWS V14.01,2013-05-28 11:36:00,
2013-05-28 07:41:00,63.1,61.9,30.15,NE,55,0.0,0.0,96,0.00,,---,0.00,VWS V14.01,2013-05-28 11:41:00,
2013-05-28 07:47:00,63.2,62.0,30.15,NE,55,0.0,1.0,96,0.00,,---,0.00,VWS V14.01,2013-05-28 11:47:00,
2013-05-28 07:52:00,63.5,62.0,30.15,NE,55,0.0,2.0,95,0.00,,---,0.00,VWS V14.01,2013-05-28 11:52:00,
2013-05-28 07:57:00,63.6,62.2,30.15,SSE,168,1.0,3.0,95,0.00,,---,0.00,VWS V14.01,2013-05-28 11:57:00,
2013-05-28 08:02:00,63.8,62.0,30.15,South,190,2.0,3.0,94,0.00,,---,0.00,VWS V14.01,2013-05-28 12:02:00,
2013-05-28 08:07:00,64.0,62.2,30.15,South,171,2.0,3.0,94,0.00,,---,0.00,VWS V14.01,2013-05-28 12:07:00,
2013-05-28 08:12:00,64.3,62.2,30.15,South,171,1.0,4.0,93,0.00,,---,0.00,VWS V14.01,2013-05-28 12:12:00,
2013-05-28 08:17:00,64.8,62.7,30.15,SW,221,2.0,5.0,93,0.00,,---,0.00,VWS V14.01,2013-05-28 12:17:00,
2013-05-28 08:22:00,65.4,63.0,30.15,South,190,0.0,2.0,92,0.00,,---,0.00,VWS V14.01,2013-05-28 12:22:00,
2013-05-28 08:27:00,65.8,63.1,30.15,South,189,1.0,4.0,91,0.00,,---,0.00,VWS V14.01,2013-05-28 12:27:00,
2013-05-28 08:33:00,66.1,63.1,30.15,SSW,205,6.0,6.0,90,0.00,,---,0.00,VWS V14.01,2013-05-28 12:33:00,
2013-05-28 08:38:00,66.6,63.6,30.15,SSW,204,4.0,6.0,90,0.00,,---,0.00,VWS V14.01,2013-05-28 12:38:00,
2013-05-28 08:43:00,66.9,63.6,30.15,WSW,244,3.0,6.0,89,0.00,,---,0.00,VWS V14.01,2013-05-28 12:43:00,
2013-05-28 08:48:00,67.3,63.3,30.15,South,176,1.0,6.0,87,0.00,,---,0.00,VWS V14.01,2013-05-28 12:48:00,
2013-05-28 08:53:00,67.5,63.5,30.15,SSW,192,0.0,5.0,87,0.00,,---,0.00,VWS V14.01,2013-05-28 12:53:00,
2013-05-28 08:58:00,68.0,63.7,30.15,SW,229,1.0,5.0,86,0.00,,---,0.00,VWS V14.01,2013-05-28 12:58:00,
2013-05-28 09:03:00,68.0,63.3,30.15,South,184,2.0,4.0,85,0.00,,---,0.00,VWS V14.01,2013-05-28 13:03:00,
2013-05-28 09:08:00,68.3,63.3,30.15,SW,218,3.0,8.0,84,0.00,,---,0.00,VWS V14.01,2013-05-28 13:08:00,
2013-05-28 09:13:00,68.5,63.8,30.15,South,183,2.0,8.0,85,0.00,,---,0.00,VWS V14.01,2013-05-28 13:13:00,
2013-05-28 09:19:00,68.5,63.5,30.16,WSW,252,0.0,9.0,84,0.00,,---,0.00,VWS V14.01,2013-05-28 13:19:00,
2013-05-28 09:24:00,69.1,64.1,30.16,South,171,0.0,7.0,84,0.00,,---,0.00,VWS V14.01,2013-05-28 13:24:00,
2013-05-28 09:29:00,69.9,64.2,30.16,SW,226,2.0,9.0,82,0.00,,---,0.00,VWS V14.01,2013-05-28 13:29:00,
2013-05-28 09:34:00,70.4,64.3,30.15,SW,220,3.0,8.0,81,0.00,,---,0.00,VWS V14.01,2013-05-28 13:34:00,
2013-05-28 09:39:00,70.4,64.7,30.15,SSW,194,5.0,8.0,82,0.00,,---,0.00,VWS V14.01,2013-05-28 13:39:00,
2013-05-28 09:44:00,70.6,64.5,30.15,SSE,161,1.0,5.0,81,0.00,,---,0.00,VWS V14.01,2013-05-28 13:44:00,
2013-05-28 09:49:00,70.7,64.2,30.15,South,184,4.0,6.0,80,0.00,,---,0.00,VWS V14.01,2013-05-28 13:49:00,
2013-05-28 09:54:00,71.5,65.0,30.15,SSW,210,3.0,6.0,80,0.00,,---,0.00,VWS V14.01,2013-05-28 13:54:00,
2013-05-28 09:59:00,72.3,65.8,30.15,SW,230,3.0,6.0,80,0.00,,---,0.00,VWS V14.01,2013-05-28 13:59:00,
2013-05-28 10:04:00,72.4,65.2,30.15,SW,222,3.0,9.0,78,0.00,,---,0.00,VWS V14.01,2013-05-28 14:04:00,
2013-05-28 10:09:00,72.5,64.5,30.15,SW,228,6.0,9.0,76,0.00,,---,0.00,VWS V14.01,2013-05-28 14:09:00,
2013-05-28 10:15:00,72.8,65.6,30.15,SW,234,4.0,7.0,78,0.00,,---,0.00,VWS V14.01,2013-05-28 14:15:00,
2013-05-28 10:20:00,73.6,64.8,30.15,West,263,11.0,11.0,74,0.00,,---,0.00,VWS V14.01,2013-05-28 14:20:00,
2013-05-28 10:25:00,73.4,65.0,30.15,South,188,3.0,8.0,75,0.00,,---,0.00,VWS V14.01,2013-05-28 14:25:00,
2013-05-28 10:30:00,73.9,64.7,30.15,SSW,198,1.0,8.0,73,0.00,,---,0.00,VWS V14.01,2013-05-28 14:30:00,
2013-05-28 10:35:00,74.8,66.0,30.15,South,177,3.0,5.0,74,0.00,,---,0.00,VWS V14.01,2013-05-28 14:35:00,
2013-05-28 10:40:00,75.4,65.3,30.15,SW,223,3.0,5.0,71,0.00,,---,0.00,VWS V14.01,2013-05-28 14:40:00,
2013-05-28 10:45:00,75.1,64.7,30.16,SE,125,1.0,6.0,70,0.00,,---,0.00,VWS V14.01,2013-05-28 14:45:00,
2013-05-28 10:50:00,74.8,64.8,30.16,SW,226,11.0,11.0,71,0.00,,---,0.00,VWS V14.01,2013-05-28 14:50:00,
2013-05-28 10:55:00,76.0,66.7,30.16,SW,224,3.0,11.0,73,0.00,,---,0.00,VWS V14.01,2013-05-28 14:55:00,
2013-05-28 11:00:00,76.5,65.6,30.16,SSW,196,1.0,3.0,69,0.00,,---,0.00,VWS V14.01,2013-05-28 15:00:00,
2013-05-28 11:05:00,76.3,66.2,30.16,SW,236,4.0,11.0,71,0.00,,---,0.00,VWS V14.01,2013-05-28 15:05:00,
2013-05-28 11:10:00,76.3,65.8,30.16,WSW,258,1.0,1.0,70,0.00,,---,0.00,VWS V14.01,2013-05-28 15:10:00,
2013-05-28 11:16:00,76.1,65.2,30.15,South,186,6.0,11.0,69,0.00,,---,0.00,VWS V14.01,2013-05-28 15:16:00,
2013-05-28 11:21:00,75.3,65.7,30.15,SSW,201,2.0,4.0,72,0.00,,---,0.00,VWS V14.01,2013-05-28 15:21:00,
2013-05-28 11:26:00,75.5,66.6,30.15,SW,230,2.0,7.0,74,0.00,,---,0.00,VWS V14.01,2013-05-28 15:26:00,
2013-05-28 11:31:00,75.6,65.5,30.15,WSW,241,5.0,5.0,71,0.00,,---,0.00,VWS V14.01,2013-05-28 15:31:00,
2013-05-28 11:36:00,75.7,66.0,30.15,SW,234,2.0,8.0,72,0.00,,---,0.00,VWS V14.01,2013-05-28 15:36:00,
2013-05-28 11:41:00,75.4,64.9,30.15,SSW,211,3.0,6.0,70,0.00,,---,0.00,VWS V14.01,2013-05-28 15:41:00,
2013-05-28 11:46:00,76.6,65.7,30.15,NW,313,1.0,8.0,69,0.00,,---,0.00,VWS V14.01,2013-05-28 15:46:00,
2013-05-28 11:51:00,77.9,66.1,30.15,SW,227,0.0,4.0,67,0.00,,---,0.00,VWS V14.01,2013-05-28 15:51:00,
2013-05-28 11:56:00,77.2,65.0,30.15,SSE,164,3.0,5.0,66,0.00,,---,0.00,VWS V14.01,2013-05-28 15:56:00,
2013-05-28 12:01:00,76.6,64.8,30.15,SSE,163,2.0,7.0,67,0.00,,---,0.00,VWS V14.01,2013-05-28 16:01:00,
2013-05-28 12:07:00,76.3,64.6,30.15,SW,219,6.0,9.0,67,0.00,,---,0.00,VWS V14.01,2013-05-28 16:07:00,
2013-05-28 12:12:00,76.2,64.9,30.15,South,182,3.0,9.0,68,0.00,,---,0.00,VWS V14.01,2013-05-28 16:12:00,
2013-05-28 12:17:00,77.2,65.4,30.14,WSW,257,3.0,10.0,67,0.00,,---,0.00,VWS V14.01,2013-05-28 16:17:00,
2013-05-28 12:22:00,78.2,65.0,30.14,SSW,194,5.0,9.0,64,0.00,,---,0.00,VWS V14.01,2013-05-28 16:22:00,
2013-05-28 12:27:00,77.8,64.7,30.14,WSW,252,4.0,12.0,64,0.00,,---,0.00,VWS V14.01,2013-05-28 16:27:00,
2013-05-28 12:32:00,78.4,65.7,30.14,SW,220,5.0,7.0,65,0.00,,---,0.00,VWS V14.01,2013-05-28 16:32:00,
2013-05-28 12:37:00,78.4,64.8,30.14,SSW,197,6.0,9.0,63,0.00,,---,0.00,VWS V14.01,2013-05-28 16:37:00,
2013-05-28 12:42:00,77.8,64.7,30.14,SE,143,2.0,10.0,64,0.00,,---,0.00,VWS V14.01,2013-05-28 16:42:00,
2013-05-28 12:47:00,77.8,64.7,30.14,SW,216,2.0,10.0,64,0.00,,---,0.00,VWS V14.01,2013-05-28 16:47:00,
2013-05-28 12:52:00,79.6,65.9,30.14,SSE,159,2.0,6.0,63,0.00,,---,0.00,VWS V14.01,2013-05-28 16:52:00,
2013-05-28 12:57:00,79.7,65.1,30.14,SW,225,6.0,10.0,61,0.00,,---,0.00,VWS V14.01,2013-05-28 16:57:00,
2013-05-28 13:03:00,78.9,65.2,30.13,South,184,5.0,11.0,63,0.00,,---,0.00,VWS V14.01,2013-05-28 17:03:00,
2013-05-28 13:08:00,78.0,63.5,30.13,SSW,200,7.0,11.0,61,0.00,,---,0.00,VWS V14.01,2013-05-28 17:08:00,
2013-05-28 13:13:00,79.2,66.0,30.13,South,171,3.0,9.0,64,0.00,,---,0.00,VWS V14.01,2013-05-28 17:13:00,
2013-05-28 13:18:00,80.3,66.1,30.12,West,265,3.0,9.0,62,0.00,,---,0.00,VWS V14.01,2013-05-28 17:18:00,
2013-05-28 13:23:00,80.4,66.2,30.12,SSW,204,6.0,7.0,62,0.00,,---,0.00,VWS V14.01,2013-05-28 17:23:00,
2013-05-28 13:28:00,80.5,64.4,30.12,SW,229,5.0,12.0,58,0.00,,---,0.00,VWS V14.01,2013-05-28 17:28:00,
2013-05-28 13:33:00,80.4,64.8,30.12,South,182,3.0,9.0,59,0.00,,---,0.00,VWS V14.01,2013-05-28 17:33:00,
2013-05-28 13:38:00,81.1,66.4,30.12,South,187,2.0,9.0,61,0.00,,---,0.00,VWS V14.01,2013-05-28 17:38:00,
2013-05-28 13:43:00,80.9,65.2,30.12,SW,221,3.0,9.0,59,0.00,,---,0.00,VWS V14.01,2013-05-28 17:43:00,
2013-05-28 13:48:00,81.0,65.3,30.11,SW,228,3.0,9.0,59,0.00,,---,0.00,VWS V14.01,2013-05-28 17:48:00,
2013-05-28 13:53:00,80.5,64.9,30.11,South,184,4.0,13.0,59,0.00,,---,0.00,VWS V14.01,2013-05-28 17:53:00,
2013-05-28 13:59:00,81.2,65.0,30.11,SW,214,7.0,13.0,58,0.00,,---,0.00,VWS V14.01,2013-05-28 17:59:00,
2013-05-28 14:04:00,81.4,65.2,30.10,SE,146,3.0,10.0,58,0.00,,---,0.00,VWS V14.01,2013-05-28 18:04:00,
2013-05-28 14:09:00,81.7,65.0,30.10,WSW,238,9.0,13.0,57,0.00,,---,0.00,VWS V14.01,2013-05-28 18:09:00,
2013-05-28 14:14:00,82.1,65.4,30.10,SSW,202,7.0,14.0,57,0.00,,---,0.00,VWS V14.01,2013-05-28 18:14:00,
2013-05-28 14:19:00,82.6,66.3,30.10,SSW,211,10.0,14.0,58,0.00,,---,0.00,VWS V14.01,2013-05-28 18:19:00,
2013-05-28 14:24:00,81.9,63.6,30.10,SSW,205,6.0,14.0,54,0.00,,---,0.00,VWS V14.01,2013-05-28 18:24:00,
2013-05-28 14:29:00,82.3,65.1,30.10,South,170,6.0,14.0,56,0.00,,---,0.00,VWS V14.01,2013-05-28 18:29:00,
2013-05-28 14:34:00,82.5,64.2,30.10,SSW,207,5.0,14.0,54,0.00,,---,0.00,VWS V14.01,2013-05-28 18:34:00,
2013-05-28 14:39:00,83.2,64.8,30.10,SSW,201,10.0,14.0,54,0.00,,---,0.00,VWS V14.01,2013-05-28 18:39:00,
2013-05-28 14:45:00,82.2,64.4,30.10,West,273,1.0,8.0,55,0.00,,---,0.00,VWS V14.01,2013-05-28 18:45:00,
2013-05-28 14:50:00,82.5,64.2,30.10,South,177,8.0,13.0,54,0.00,,---,0.00,VWS V14.01,2013-05-28 18:50:00,
2013-05-28 14:55:00,83.0,65.2,30.10,SW,232,8.0,11.0,55,0.00,,---,0.00,VWS V14.01,2013-05-28 18:55:00,
2013-05-28 15:00:00,82.3,64.0,30.09,South,185,6.0,13.0,54,0.00,,---,0.00,VWS V14.01,2013-05-28 19:00:00,
2013-05-28 15:05:00,82.5,63.7,30.09,SSW,196,11.0,15.0,53,0.00,,---,0.00,VWS V14.01,2013-05-28 19:05:00,
2013-05-28 15:10:00,82.4,63.6,30.09,South,185,6.0,15.0,53,0.00,,---,0.00,VWS V14.01,2013-05-28 19:10:00,
2013-05-28 15:15:00,82.6,64.3,30.09,SSW,192,7.0,13.0,54,0.00,,---,0.00,VWS V14.01,2013-05-28 19:15:00,
2013-05-28 15:20:00,82.2,63.4,30.09,WSW,242,5.0,13.0,53,0.00,,---,0.00,VWS V14.01,2013-05-28 19:20:00,
2013-05-28 15:25:00,83.0,65.2,30.09,SSE,161,1.0,11.0,55,0.00,,---,0.00,VWS V14.01,2013-05-28 19:25:00,
2013-05-28 15:30:00,83.3,66.0,30.09,SSE,157,0.0,4.0,56,0.00,,---,0.00,VWS V14.01,2013-05-28 19:30:00,
2013-05-28 15:35:00,83.5,64.6,30.09,SSW,213,5.0,16.0,53,0.00,,---,0.00,VWS V14.01,2013-05-28 19:35:00,
2013-05-28 15:40:00,82.9,63.5,30.09,SW,221,6.0,9.0,52,0.00,,---,0.00,VWS V14.01,2013-05-28 19:40:00,
2013-05-28 15:45:00,81.9,63.6,30.08,SSW,203,1.0,13.0,54,0.00,,---,0.00,VWS V14.01,2013-05-28 19:45:00,
2013-05-28 15:51:00,82.4,64.1,30.08,SSW,203,10.0,11.0,54,0.00,,---,0.00,VWS V14.01,2013-05-28 19:51:00,
2013-05-28 15:56:00,81.9,63.6,30.08,SE,142,5.0,13.0,54,0.00,,---,0.00,VWS V14.01,2013-05-28 19:56:00,
2013-05-28 16:01:00,82.2,63.9,30.08,SSW,193,12.0,18.0,54,0.00,,---,0.00,VWS V14.01,2013-05-28 20:01:00,
2013-05-28 16:06:00,82.0,63.2,30.08,SSE,158,3.0,18.0,53,0.00,,---,0.00,VWS V14.01,2013-05-28 20:06:00,
2013-05-28 16:11:00,81.7,64.5,30.08,SE,144,4.0,8.0,56,0.00,,---,0.00,VWS V14.01,2013-05-28 20:11:00,
2013-05-28 16:16:00,81.3,64.1,30.07,South,169,6.0,10.0,56,0.00,,---,0.00,VWS V14.01,2013-05-28 20:16:00,
2013-05-28 16:21:00,81.7,63.5,30.07,SSE,161,10.0,15.0,54,0.00,,---,0.00,VWS V14.01,2013-05-28 20:21:00,
2013-05-28 16:26:00,81.9,64.2,30.07,WSW,240,10.0,15.0,55,0.00,,---,0.00,VWS V14.01,2013-05-28 20:26:00,
2013-05-28 16:31:00,82.5,64.2,30.07,SE,130,3.0,11.0,54,0.00,,---,0.00,VWS V14.01,2013-05-28 20:31:00,
2013-05-28 16:36:00,82.9,64.6,30.07,SW,227,10.0,11.0,54,0.00,,---,0.00,VWS V14.01,2013-05-28 20:36:00,
2013-05-28 16:41:00,82.6,63.2,30.07,SSW,206,3.0,9.0,52,0.00,,---,0.00,VWS V14.01,2013-05-28 20:41:00,
2013-05-28 16:46:00,81.8,62.5,30.07,SW,226,4.0,18.0,52,0.00,,---,0.00,VWS V14.01,2013-05-28 20:46:00,
2013-05-28 16:52:00,82.1,62.2,30.07,West,272,2.0,7.0,51,0.00,,---,0.00,VWS V14.01,2013-05-28 20:52:00,
2013-05-28 16:57:00,82.6,62.7,30.07,SSE,149,0.0,15.0,51,0.00,,---,0.00,VWS V14.01,2013-05-28 20:57:00,
2013-05-28 17:02:00,82.8,62.8,30.07,SW,230,3.0,11.0,51,0.00,,---,0.00,VWS V14.01,2013-05-28 21:02:00,
2013-05-28 17:07:00,82.7,62.8,30.07,SW,229,10.0,11.0,51,0.00,,---,0.00,VWS V14.01,2013-05-28 21:07:00,
2013-05-28 17:12:00,82.4,62.5,30.07,South,171,4.0,12.0,51,0.00,,---,0.00,VWS V14.01,2013-05-28 21:12:00,
2013-05-28 17:17:00,82.2,62.3,30.07,SSW,195,3.0,13.0,51,0.00,,---,0.00,VWS V14.01,2013-05-28 21:17:00,
2013-05-28 17:22:00,82.4,62.5,30.07,SSW,206,10.0,13.0,51,0.00,,---,0.00,VWS V14.01,2013-05-28 21:22:00,
2013-05-28 17:27:00,82.1,61.6,30.07,South,188,7.0,16.0,50,0.00,,---,0.00,VWS V14.01,2013-05-28 21:27:00,
2013-05-28 17:32:00,82.1,62.2,30.07,SSW,204,4.0,10.0,51,0.00,,---,0.00,VWS V14.01,2013-05-28 21:32:00,
2013-05-28 17:37:00,82.4,62.5,30.07,SSW,193,5.0,12.0,51,0.00,,---,0.00,VWS V14.01,2013-05-28 21:37:00,
2013-05-28 17:42:00,81.7,62.4,30.07,SSW,202,6.0,11.0,52,0.00,,---,0.00,VWS V14.01,2013-05-28 21:42:00,
2013-05-28 17:47:00,80.8,62.1,30.07,SSW,205,6.0,12.0,53,0.00,,---,0.00,VWS V14.01,2013-05-28 21:47:00,
2013-05-28 17:53:00,80.4,62.2,30.07,SW,223,6.0,12.0,54,0.00,,---,0.00,VWS V14.01,2013-05-28 21:53:00,
2013-05-28 17:58:00,80.1,62.0,30.07,SW,214,11.0,14.0,54,0.00,,---,0.00,VWS V14.01,2013-05-28 21:58:00,
2013-05-28 18:03:00,80.2,62.1,30.07,WSW,240,3.0,13.0,54,0.00,,---,0.00,VWS V14.01,2013-05-28 22:03:00,
2013-05-28 18:08:00,79.7,61.6,30.07,South,179,2.0,13.0,54,0.00,,---,0.00,VWS V14.01,2013-05-28 22:08:00,
2013-05-28 18:13:00,79.5,62.5,30.07,SSE,166,1.0,7.0,56,0.00,,---,0.00,VWS V14.01,2013-05-28 22:13:00,
2013-05-28 18:18:00,80.0,62.4,30.07,SW,223,4.0,11.0,55,0.00,,---,0.00,VWS V14.01,2013-05-28 22:18:00,
2013-05-28 18:23:00,80.3,62.7,30.07,SSW,213,6.0,13.0,55,0.00,,---,0.00,VWS V14.01,2013-05-28 22:23:00,
2013-05-28 18:28:00,80.6,63.5,30.07,SE,137,5.0,13.0,56,0.00,,---,0.00,VWS V14.01,2013-05-28 22:28:00,
2013-05-28 18:33:00,80.6,63.5,30.07,SW,231,7.0,13.0,56,0.00,,---,0.00,VWS V14.01,2013-05-28 22:33:00,
2013-05-28 18:38:00,80.3,63.2,30.07,SSW,200,13.0,13.0,56,0.00,,---,0.00,VWS V14.01,2013-05-28 22:38:00,
2013-05-28 18:43:00,80.0,62.9,30.07,SSE,163,5.0,7.0,56,0.00,,---,0.00,VWS V14.01,2013-05-28 22:43:00,
2013-05-28 18:48:00,79.8,63.2,30.06,SSW,195,10.0,12.0,57,0.00,,---,0.00,VWS V14.01,2013-05-28 22:48:00,
2013-05-28 18:53:00,79.6,63.0,30.06,SSE,158,3.0,12.0,57,0.00,,---,0.00,VWS V14.01,2013-05-28 22:53:00,
2013-05-28 18:59:00,79.4,62.3,30.06,South,175,2.0,12.0,56,0.00,,---,0.00,VWS V14.01,2013-05-28 22:59:00,
2013-05-28 19:04:00,79.4,62.9,30.06,South,184,3.0,7.0,57,0.00,,---,0.00,VWS V14.01,2013-05-28 23:04:00,
2013-05-28 19:09:00,79.2,63.2,30.06,West,273,3.0,7.0,58,0.00,,---,0.00,VWS V14.01,2013-05-28 23:09:00,
2013-05-28 19:14:00,79.2,62.7,30.06,SSW,199,7.0,9.0,57,0.00,,---,0.00,VWS V14.01,2013-05-28 23:14:00,
2013-05-28 19:19:00,79.0,63.0,30.06,South,184,3.0,10.0,58,0.00,,---,0.00,VWS V14.01,2013-05-28 23:19:00,
2013-05-28 19:24:00,78.8,62.8,30.06,South,181,3.0,5.0,58,0.00,,---,0.00,VWS V14.01,2013-05-28 23:24:00,
2013-05-28 19:29:00,78.7,62.7,30.07,SSW,194,1.0,7.0,58,0.00,,---,0.00,VWS V14.01,2013-05-28 23:29:00,
2013-05-28 19:34:00,78.6,63.1,30.07,South,188,3.0,7.0,59,0.00,,---,0.00,VWS V14.01,2013-05-28 23:34:00,
2013-05-28 19:39:00,78.4,63.4,30.07,SSW,201,4.0,11.0,60,0.00,,---,0.00,VWS V14.01,2013-05-28 23:39:00,
2013-05-28 19:44:00,78.2,63.7,30.07,SSW,194,2.0,9.0,61,0.00,,---,0.00,VWS V14.01,2013-05-28 23:44:00,
2013-05-28 19:50:00,78.0,63.5,30.07,SSW,192,3.0,9.0,61,0.00,,---,0.00,VWS V14.01,2013-05-28 23:50:00,
2013-05-28 19:55:00,77.8,63.8,30.07,SSE,160,2.0,6.0,62,0.00,,---,0.00,VWS V14.01,2013-05-28 23:55:00,
2013-05-28 20:00:00,77.4,63.4,30.06,South,173,3.0,6.0,62,0.00,,---,0.00,VWS V14.01,2013-05-29 00:00:00,
2013-05-28 20:05:00,77.1,63.5,30.06,SSW,202,5.0,7.0,63,0.00,,---,0.00,VWS V14.01,2013-05-29 00:05:00,
2013-05-28 20:10:00,77.0,63.5,30.06,South,181,0.0,7.0,63,0.00,,---,0.00,VWS V14.01,2013-05-29 00:10:00,
2013-05-28 20:15:00,76.7,63.6,30.06,South,183,3.0,6.0,64,0.00,,---,0.00,VWS V14.01,2013-05-29 00:15:00,
2013-05-28 20:20:00,76.4,63.8,30.06,South,184,0.0,6.0,65,0.00,,---,0.00,VWS V14.01,2013-05-29 00:20:00,
2013-05-28 20:25:00,76.0,63.4,30.06,South,172,1.0,4.0,65,0.00,,---,0.00,VWS V14.01,2013-05-29 00:25:00,
2013-05-28 20:30:00,75.8,63.2,30.05,South,187,0.0,1.0,65,0.00,,---,0.00,VWS V14.01,2013-05-29 00:30:00,
2013-05-28 20:35:00,75.7,63.1,30.05,South,183,2.0,4.0,65,0.00,,---,0.00,VWS V14.01,2013-05-29 00:35:00,
2013-05-28 20:40:00,75.6,63.5,30.05,South,188,2.0,4.0,66,0.00,,---,0.00,VWS V14.01,2013-05-29 00:40:00,
2013-05-28 20:45:00,75.4,63.3,30.05,SSW,195,0.0,4.0,66,0.00,,---,0.00,VWS V14.01,2013-05-29 00:45:00,
2013-05-28 20:51:00,75.1,63.4,30.05,SSW,195,1.0,2.0,67,0.00,,---,0.00,VWS V14.01,2013-05-29 00:51:00,
2013-05-28 20:56:00,74.8,63.1,30.05,South,186,0.0,3.0,67,0.00,,---,0.00,VWS V14.01,2013-05-29 00:56:00,
2013-05-28 21:01:00,74.6,63.3,30.06,South,186,1.0,1.0,68,0.00,,---,0.00,VWS V14.01,2013-05-29 01:01:00,
2013-05-28 21:06:00,74.2,63.4,30.06,SSW,192,3.0,4.0,69,0.00,,---,0.00,VWS V14.01,2013-05-29 01:06:00,
2013-05-28 21:11:00,74.0,63.2,30.06,SSW,200,0.0,3.0,69,0.00,,---,0.00,VWS V14.01,2013-05-29 01:11:00,
2013-05-28 21:16:00,73.9,63.5,30.06,SE,145,1.0,5.0,70,0.00,,---,0.00,VWS V14.01,2013-05-29 01:16:00,
2013-05-28 21:21:00,73.7,63.3,30.06,SSW,196,0.0,4.0,70,0.00,,---,0.00,VWS V14.01,2013-05-29 01:21:00,
2013-05-28 21:26:00,73.5,63.5,30.06,SW,217,0.0,6.0,71,0.00,,---,0.00,VWS V14.01,2013-05-29 01:26:00,
2013-05-28 21:31:00,73.4,63.4,30.07,South,189,2.0,3.0,71,0.00,,---,0.00,VWS V14.01,2013-05-29 01:31:00,
2013-05-28 21:37:00,73.3,63.3,30.07,SSW,200,0.0,5.0,71,0.00,,---,0.00,VWS V14.01,2013-05-29 01:37:00,
2013-05-28 21:42:00,73.2,63.6,30.07,SSW,201,2.0,5.0,72,0.00,,---,0.00,VWS V14.01,2013-05-29 01:42:00,
2013-05-28 21:47:00,73.2,63.6,30.07,SSW,202,1.0,5.0,72,0.00,,---,0.00,VWS V14.01,2013-05-29 01:47:00,
2013-05-28 21:52:00,73.1,63.5,30.07,SSW,196,3.0,3.0,72,0.00,,---,0.00,VWS V14.01,2013-05-29 01:52:00,
2013-05-28 21:57:00,73.0,63.5,30.07,South,175,3.0,5.0,72,0.00,,---,0.00,VWS V14.01,2013-05-29 01:57:00,
2013-05-28 22:02:00,72.8,63.7,30.07,South,186,0.0,4.0,73,0.00,,---,0.00,VWS V14.01,2013-05-29 02:02:00,
2013-05-28 22:07:00,72.6,63.8,30.07,South,187,1.0,4.0,74,0.00,,---,0.00,VWS V14.01,2013-05-29 02:07:00,
2013-05-28 22:12:00,72.4,63.7,30.07,South,187,0.0,1.0,74,0.00,,---,0.00,VWS V14.01,2013-05-29 02:12:00,
2013-05-28 22:17:00,72.1,63.4,30.08,South,187,0.0,2.0,74,0.00,,---,0.00,VWS V14.01,2013-05-29 02:17:00,
2013-05-28 22:22:00,72.0,63.7,30.08,South,187,0.0,1.0,75,0.00,,---,0.00,VWS V14.01,2013-05-29 02:22:00,
2013-05-28 22:27:00,71.5,63.5,30.08,South,187,0.0,2.0,76,0.00,,---,0.00,VWS V14.01,2013-05-29 02:27:00,
2013-05-28 22:33:00,71.5,63.5,30.08,South,187,1.0,2.0,76,0.00,,---,0.00,VWS V14.01,2013-05-29 02:33:00,
2013-05-28 22:38:00,71.4,63.5,30.08,South,187,1.0,4.0,76,0.00,,---,0.00,VWS V14.01,2013-05-29 02:38:00,
2013-05-28 22:43:00,71.2,63.6,30.08,South,187,0.0,3.0,77,0.00,,---,0.00,VWS V14.01,2013-05-29 02:43:00,
2013-05-28 22:48:00,71.0,63.4,30.08,South,187,0.0,3.0,77,0.00,,---,0.00,VWS V14.01,2013-05-29 02:48:00,
2013-05-28 22:53:00,70.8,63.6,30.08,South,187,3.0,3.0,78,0.00,,---,0.00,VWS V14.01,2013-05-29 02:53:00,
2013-05-28 22:58:00,70.7,63.5,30.08,South,187,0.0,3.0,78,0.00,,---,0.00,VWS V14.01,2013-05-29 02:58:00,
2013-05-28 23:03:00,70.5,63.3,30.08,South,187,0.0,2.0,78,0.00,,---,0.00,VWS V14.01,2013-05-29 03:03:00,
2013-05-28 23:08:00,70.4,63.6,30.08,South,187,0.0,2.0,79,0.00,,---,0.00,VWS V14.01,2013-05-29 03:08:00,
2013-05-28 23:13:00,70.1,63.7,30.08,South,187,0.0,1.0,80,0.00,,---,0.00,VWS V14.01,2013-05-29 03:13:00,
2013-05-28 23:19:00,69.8,63.4,30.08,South,187,0.0,2.0,80,0.00,,---,0.00,VWS V14.01,2013-05-29 03:19:00,
2013-05-28 23:23:00,69.6,63.5,30.08,South,187,1.0,2.0,81,0.00,,---,0.00,VWS V14.01,2013-05-29 03:23:00,
2013-05-28 23:29:00,69.5,63.4,30.08,South,186,0.0,3.0,81,0.00,,---,0.00,VWS V14.01,2013-05-29 03:29:00,
2013-05-28 23:34:00,69.3,63.2,30.08,South,186,0.0,1.0,81,0.00,,---,0.00,VWS V14.01,2013-05-29 03:34:00,
2013-05-28 23:39:00,69.2,63.1,30.08,South,186,0.0,1.0,81,0.00,,---,0.00,VWS V14.01,2013-05-29 03:39:00,
2013-05-28 23:44:00,69.2,63.1,30.08,South,186,0.0,1.0,81,0.00,,---,0.00,VWS V14.01,2013-05-29 03:44:00,
2013-05-28 23:49:00,68.9,63.2,30.08,South,186,0.0,1.0,82,0.00,,---,0.00,VWS V14.01,2013-05-29 03:49:00,
2013-05-28 23:54:00,68.8,63.1,30.08,South,186,0.0,1.0,82,0.00,,---,0.00,VWS V14.01,2013-05-29 03:54:00,
2013-05-28 23:59:00,68.7,63.3,30.08,South,186,0.0,1.0,83,0.00,,---,0.00,VWS V14.01,2013-05-29 03:59:00,